Location: Shepherdstown, WV
(39.4326°N, 77.8042°W)
Time: 19:55:12
(UTC-04:00)

Vanguard 3 - Pass Details

Date: 31 July 2021
Orbit: 510 x 3260 km, 33.3° (Epoch: 22 September)

Event Time Altitude Azimuth Distance (km) Brightness Sun altitude
Rises 21:29:55 0° 265° (W) 6,266 12.5 -11.8°
Reaches altitude 10° 21:33:36 10° 264° (W) 5,520 12.1 -12.4°
Maximum altitude 21:51:45 72° 184° (S) 3,364 10.1 -15.2°
Enters shadow 22:09:06 14° 106° (ESE) 5,417 10.8 -17.7°
